Simultaneous Nadir Overpasses (SNOs) Predictions

Prediction of SNOs between AQUA and NPP Satellite Orbit:

Table of predicted SNOs for the next 14.0 days since TLE Epoch: 9/2/2016
Index Date (AQUA) Time (AQUA) Lat,Lon (AQUA) SZA (AQUA ) Date (NPP) Time (NPP) Lat,Lon (NPP) SZA (NPP ) Distance(km) Time Diff (sec)
1 09/02/2016 13:16:08 -73.50, 33.70 87.50 09/02/2016 13:15:12 -73.49, 33.64 87.43 2.26 56
2 09/02/2016 14:05:03 75.06,-154.98 90.82 09/02/2016 14:05:24 75.05,-155.04 90.81 1.95 21
3 09/05/2016 05:32:17 -74.48, 151.80 87.65 09/05/2016 05:31:44 -74.49, 151.87 87.64 2.37 33
4 09/05/2016 06:21:24 75.41, -38.14 91.34 09/05/2016 06:22:09 75.40, -38.23 91.32 2.63 45
5 09/07/2016 21:48:37 -74.93, -91.20 87.21 09/07/2016 21:48:28 -74.94, -91.12 87.23 2.35 9
6 09/07/2016 22:37:45 75.80, 78.86 91.83 09/07/2016 22:38:54 75.79, 78.78 91.79 2.42 69
7 09/10/2016 13:16:04 73.59,-146.11 95.17 09/10/2016 13:15:03 73.59,-146.11 95.23 0.17 61
8 09/10/2016 14:05:06 -74.91, 24.63 86.26 09/10/2016 14:05:22 -74.90, 24.55 86.25 2.51 16
9 09/13/2016 05:32:19 74.28, -28.67 95.36 09/13/2016 05:31:42 74.29, -28.63 95.39 1.15 37
10 09/13/2016 06:21:23 -75.48, 142.06 85.94 09/13/2016 06:22:03 -75.48, 142.04 85.97 0.75 40
11 09/15/2016 21:48:44 74.40, 87.49 96.19 09/15/2016 21:48:32 74.39, 87.42 96.22 2.32 12




NCC Satellite Simultaneous Nadir Overpasses (SNOs) Prediction Service
